OpenBCM V1.08-5-g2f4a (Linux)

Packet Radio Mailbox

IZ3LSV

[San Dona' di P. JN]

 Login: GUEST





  
I0OJJ  > KEPS     21.05.25 01:45l 349 Lines 16627 Bytes #12 (0) @ AMSAT
BID : ORB25141.1
Read: GUEST
Subj: 2Line Orbital Elements 25141.AMSAT
Path: IZ3LSV<IK6IHL<IK7NXU<HB9ON<DK0WUE<PI8ZTM<IQ5KG<I0OJJ
Sent: 250521/0025z @:I0OJJ.ITA.EU [Rome] obcm1.08-10-g596e
From: I0OJJ @ I0OJJ.ITA.EU (Gustavo)
To:   KEPS @ AMSAT
X-Info: This message was generated automatically


QST de W1STR

AMSAT Orbital Elements for Amateur Satellites in TLE Format
From Orbital Analysis Office
New England Sci-Tech STEM Education Center
Natick, MA May 21, 2025
To all radio amateurs


These element sets describe the orbits of various satellites 
in use by the amateur radio community. For details see:
www.amsat.org/keplerian-elements-formats/

A daily update of element sets is available at:
www.amsat.org/tle/daily-bulletin.txt
or without bulletin text:
www.amsat.org/tle/dailytle.txt


AO-07
1 07530U 74089B   25140.55038039 -.00000033  00000-0  85005-4 0  9997
2 07530 101.9935 144.6009 0012360 158.6365 324.6940 12.53689127311316
UO-11
1 14781U 84021B   25140.91607338  .00001567  00000-0  17084-3 0  9997
2 14781  97.7532 107.6764 0009061  49.2601 310.9402 14.89330114219718
AO-27
1 22825U 93061C   25140.70703835  .00000111  00000-0  59478-4 0  9993
2 22825  98.7375 202.1621 0008731 163.7839 196.3624 14.30792579651145
FO-29
1 24278U 96046B   25140.56844634 -.00000034  00000-0  31601-6 0  9995
2 24278  98.5781  37.0918 0350629  34.5977 327.7445 13.53247609420065
NOAA-15
1 25338U 98030A   25140.89788568  .00000237  00000-0  11503-3 0  9997
2 25338  98.5361 166.5018 0011311  61.1564 299.0750 14.26968143405591
GO-32
1 25397U 98043D   25140.53047556  .00000087  00000-0  57762-4 0  9993
2 25397  98.9694 119.2326 0000198 261.9683  98.1473 14.24310033395437
ISS
1 25544U 98067A   25140.37106448  .00008533  00000-0  15939-3 0  9994
2 25544  51.6374  84.8753 0002567 126.2244  18.1297 15.49625942510847
NO-44
1 26931U 01043C   25140.45728976  .00000133  00000-0  81071-4 0  9997
2 26931  67.0494 179.8675 0005881 274.3526  85.6904 14.31724544234227
SO-50
1 27607U 02058C   25140.77573279  .00001084  00000-0  15293-3 0  9992
2 27607  64.5532 261.6628 0054013 338.5755  21.3089 14.81574175206508
CO-55
1 27844U 03031E   25140.44343503  .00000355  00000-0  17368-3 0  9991
2 27844  98.6761 148.9767 0008472 242.4835 117.5484 14.23980788135778
CO-57
1 27848U 03031J   25139.96066306  .00000292  00000-0  14808-3 0  9999
2 27848  98.6791 148.5215 0008259 263.9236  96.1001 14.23317124135433
RS-22
1 27939U 03042A   25140.77097006  .00001247  00000-0  20546-3 0  9991
2 27939  98.3269 309.7467 0012684  75.1401  54.5137 14.72304397157912
NOAA-18
1 28654U 05018A   25140.80350995  .00000212  00000-0  13582-3 0  9997
2 28654  98.8421 220.5017 0014322 181.1249 178.9894 14.13600588 30953
CO-58
1 28895U 05043F   25140.38356575  .00001668  00000-0  28023-3 0  9997
2 28895  98.2472 284.4854 0014692  16.3636 343.8041 14.70949290 43979
CO-65
1 32785U 08021C   25140.91641565  .00005020  00000-0  36525-3 0  9996
2 32785  97.7848 111.9386 0007726 281.8426  78.1932 15.04243487926197
CO-66
1 32791U 08021J   25140.47314835  .00011276  00000-0  55393-3 0  9995
2 32791  97.7273 120.0753 0002212 203.4599 156.6533 15.18232554927447
RS-30
1 32953U 08025A   25140.76512511  .00000035  00000-0  17924-3 0  9991
2 32953  82.5037 239.4974 0020511  90.4871 269.8560 12.43164408771076
NOAA-19
1 33591U 09005A   25140.52359716  .00000191  00000-0  12570-3 0  9994
2 33591  98.9980 205.1145 0014665  63.3725 296.8947 14.13364032839015
SRMSAT
1 37841U 11058D   25140.44420507  .00000437  00000-0  93605-4 0  9997
2 37841  19.9724 276.4016 0011661 203.2300 199.1187 14.11429845702260
ZACUBE-1
1 39417U 13066B   25140.86201180  .00003910  00000-0  34267-3 0  9996
2 39417  97.7784  97.9851 0045608 116.8487 243.7407 14.96452897621961
Delfi-N3xt
1 39428U 13066N   25140.72707307  .00007810  00000-0  79727-3 0  9998
2 39428  97.8355  58.6036 0087224  66.4007 294.6339 14.88066046616304
GOMX-1
1 39430U 13066Q   25140.64541397  .00001527  00000-0  24472-3 0  9993
2 39430  97.6858   0.5323 0131120 256.1674 102.4914 14.67564479612481
LO-74
1 39440U 13066AA  25140.59620785  .00003682  00000-0  37676-3 0  9991
2 39440  97.8484  85.2981 0060476 245.4835 114.0070 14.89804916618467
AO-73
1 39444U 13066AE  25140.43039686  .00006620  00000-0  49911-3 0  9992
2 39444  97.7828 102.2704 0043740  94.5549 266.0673 15.02030276620562
DTUSAT-2
1 40030U 14033W   25140.45282760  .00006127  00000-0  40225-3 0  9996
2 40030  98.0548 111.3047 0010858 121.6001 238.6287 15.07990501593362
EO-80
1 40032U 14033Y   25140.34151977  .00006705  00000-0  43896-3 0  9990
2 40032  98.0418 110.8706 0010358  72.5416 287.6942 15.08061170593325
LILACSAT-2
1 40908U 15049K   25140.57936881  .00010645  00000-0  28253-3 0  9998
2 40908  97.5074 160.4489 0008040 221.7344 138.3288 15.38453156535155
IO-86
1 40931U 15052B   25038.81889873  .00001817  00000-0  15548-3 0  9993
2 40931   6.0001 108.1159 0012838 187.7041 172.2889 14.78568669506492
Horyu-4
1 41340U 16012D   25140.46922212  .00020215  00000-0  55421-3 0  9992
2 41340  30.9965 267.0973 0006529 201.0621 158.9756 15.36029877509692
Lapan A3
1 41603U 16040E   25140.74649616  .00003479  00000-0  12316-3 0  9999
2 41603  97.1375 146.1344 0010449 350.8480   9.2569 15.29724852494752
CAS-2T
1 41847U 16066G   25140.78684043  .00000960  00000-0  14684-3 0  9996
2 41847  98.4203 215.4208 0345260 238.2800 118.4308 14.43420132448169
CAS-4B
1 42759U 17034B   25140.77406057  .00059785  00000-0  69026-3 0  9990
2 42759  43.0072  79.7077 0018650 157.2549 202.9145 15.60850662439508
CAS-4A
1 42761U 17034D   25140.82225675  .00067462  00000-0  74388-3 0  9992
2 42761  43.0111  76.7777 0019991 161.9857 198.1720 15.61959962439534
TechnoSat
1 42829U 17042E   25140.72005199  .00002700  00000-0  21218-3 0  9990
2 42829  97.3933 310.3832 0013490 352.9320   7.1712 15.01611621427748
AO-91
1 43017U 17073E   25140.57434084  .00006362  00000-0  33105-3 0  9992
2 43017  97.5294  11.8563 0172045 234.4122 124.0969 15.04419589406203
S-Net D
1 43186U 18014G   25140.70763723  .00004076  00000-0  24352-3 0  9999
2 43186  97.5639  43.8174 0007409 300.2393  59.8103 15.11633718399373
S-Net B
1 43187U 18014H   25140.31559478  .00004105  00000-0  24536-3 0  9994
2 43187  97.5647  43.4002 0008034 295.5822  64.4577 15.11611244399318
S-Net A
1 43188U 18014J   25140.31091283  .00003948  00000-0  23599-3 0  9992
2 43188  97.5655  43.5431 0007943 296.5793  63.4623 15.11634997399312
S-Net C
1 43189U 18014K   25140.25174089  .00004156  00000-0  24830-3 0  9993
2 43189  97.5671  43.4953 0009350 287.0417  72.9789 15.11607766397850
Ten-Koh
1 43677U 18084G   25140.45718346  .00002208  00000-0  18044-3 0  9990
2 43677  98.0889 311.9155 0005679 348.8477  11.2619 15.00484068357229
PO-101
1 43678U 18084H   25140.88743282  .00002341  00000-0  20232-3 0  9995
2 43678  98.1019 316.2622 0007629   0.9245 359.1989 14.98240372357430
QO-100
1 43700U 18090A   25140.50530968  .00000153  00000-0  00000-0 0  9999
2 43700   0.0133 302.6651 0002064 155.7339 347.7090  1.00269369 23732
MinXSS-2
1 43758U 18099A   25140.12555938  .00014267  00000-0  57179-3 0  9996
2 43758  97.5023 206.1038 0011351 220.0732 139.9670 15.25076398353857
AO-95
1 43770U 18099N   25140.13531444  .00007202  00000-0  36885-3 0  9999
2 43770  97.4923 198.4511 0008968 283.2313  76.7919 15.16866063353450
RANGE-A
1 43773U 18099R   25140.37568425  .00003552  00000-0  22900-3 0  9994
2 43773  97.4494 189.3644 0009637 258.4941 101.5206 15.08904179353174
MOVE-II
1 43780U 18099Y   25140.73354447  .00172303  00000-0  15192-2 0  9994
2 43780  97.4657 214.9628 0006551 201.6137 158.4848 15.68156569354687
SNUSat 2
1 43782U 18099AA  25140.12410557  .00006572  00000-0  36195-3 0  9995
2 43782  97.4606 195.3569 0011314 217.2421 142.8027 15.14301877353401
SnugLite
1 43784U 18099AC  25140.69765524  .00009011  00000-0  45655-3 0  9998
2 43784  97.4425 195.4407 0003072 195.4851 164.6289 15.17197774353628
ITASat 1
1 43786U 18099AE  25140.10713624  .00006136  00000-0  35369-3 0  9996
2 43786  97.4576 194.9098 0012743 276.5645  83.4135 15.12675648353369
EAGLET 1
1 43790U 18099AJ  25140.39143743  .00003165  00000-0  20459-3 0  9994
2 43790  97.4771 195.2098 0010471 256.0101 103.9964 15.08880959353020
ESEO
1 43792U 18099AL  25140.68989513  .00002247  00000-0  17329-3 0  9993
2 43792  97.4464 189.0264 0011976 230.2596 129.7575 15.02525037352839
CSIM
1 43793U 18099AM  25140.19900184  .00141881  00000-0  12942-2 0  9990
2 43793  97.4825 216.6337 0007752 198.0276 162.0711 15.67399445354446
JO-97
1 43803U 18099AX  25140.11884456  .00010658  00000-0  49219-3 0  9992
2 43803  97.4668 199.3840 0007234 203.7192 156.3711 15.20362040353664
Suomi 100
1 43804U 18099AY  25140.43040330  .00008646  00000-0  42775-3 0  9997
2 43804  97.4739 199.0451 0011915 210.4097 149.6447 15.17991804353640
ISAT
1 43879U 18111D   25140.47569251  .00017232  00000-0  61074-3 0  9990
2 43879  97.5966  54.4351 0006342 268.5019  91.5494 15.29149895350624
UWE-4
1 43880U 18111E   25140.73235374  .00012953  00000-0  51580-3 0  9993
2 43880  97.5908  53.3114 0009868 283.0781  76.9355 15.25333064348608
Sparrow
1 43881U 18111F   25140.27735680  .00016767  00000-0  57357-3 0  9993
2 43881  97.6107  57.0325 0005249 327.7926  32.2992 15.30318990350682
Prox-1
1 44339U 19036A   25140.79218932  .00009413  00000-0  11946-2 0  9995
2 44339  23.9961 191.7386 0007098 201.6101 158.4097 14.79563764315178
SONATE
1 44400U 19038Q   25140.55750005  .00201446  00000-0  84833-3 0  9998
2 44400  97.6924 164.9708 0001621 267.9333  92.1750 15.84946538326399
Taurus 1
1 44530U 19059C   25140.79277769  .00005838  00000-0  10831-2 0  9995
2 44530  98.6048 279.2528 0010672 101.6214 258.6186 14.65603609301043
Duchifat 3
1 44854U 19089C   25140.66494127  .00041215  00000-0  85134-3 0  9990
2 44854  36.9429 121.6583 0002493 201.8430 158.2220 15.44882082299868
